Berlin, NH

11:40 AM EST on November 18, 2017 (GMT -0500)
Berlin Municipal

Weather History for KBML - January, 2006

Change the Weather History Date:

Sunday, January 22, 2006

  Actual Average Record
Temperature  
Mean Temperature 16 °F -  
Max Temperature 26 °F 20 °F 46 °F (1997)
Min Temperature 6 °F 0 °F -23 °F (2005)
Degree Days  
Heating Degree Days 49    
Moisture  
Dew Point 8 °F    
Average Humidity 69    
Maximum Humidity 87    
Minimum Humidity 35    
Precipitation  
Precipitation 0.00 in - - ()
Sea Level Pressure  
Sea Level Pressure 30.49 in    
Wind  
Wind Speed 7 mph (WNW)    
Max Wind Speed 12 mph    
Max Gust Speed 25 mph    
Visibility 7 miles    
Events Snow    
Averages and records for this station are not official NWS values.
T = Trace of Precipitation, MM = Missing Value Source: NWS Daily Summary

Daily Weather History Graph

Daily Weather History Graph

Search for Another Location

Airport or City:

Trip Planner

Search our weather history database for the weather conditions in past years. The results will help you decide how hot, cold, wet, or windy it might be!

Date:

Astronomy

Jan. 22, 2006 Rise Set
Actual Time 7:13 AM EST 4:39 PM EST
Civil Twilight 6:41 AM EST 5:11 PM EST
Nautical Twilight 6:05 AM EST 5:47 PM EST
Astronomical Twilight 5:31 AM EST 6:21 PM EST
Moon 12:06 AM EST (1/22) 10:35 AM EST (1/22)
Length of Visible Light 10h 30m
Length of Day
9h 26m
Waning Gibbous, 49% of the Moon is Illuminated
Jan 22
Waning Gibbous
Jan 29
New
Feb 5
First Quarter
Feb 12
Full
Feb 21
Last Quarter

Hourly Weather History & Observations

Time (EST) Temp. Windchill Dew Point Humidity Pressure Visibility Wind Dir Wind Speed Gust Speed Precip Events Conditions
12:00 AM 21.2 °F 9.5 °F 15.8 °F 80% 30.27 in 3.0 mi West 11.5 mph 19.6 mph 0.00 in Snow Light Snow
12:16 AM 21.2 °F 12.6 °F 15.8 °F 80% 30.28 in 1.8 mi WNW 6.9 mph 18.4 mph 0.00 in Snow Light Snow
12:30 AM 19.4 °F 10.4 °F 15.8 °F 86% 30.30 in 1.2 mi West 6.9 mph - 0.00 in Snow Light Snow
12:39 AM 19.4 °F 9.5 °F 15.8 °F 86% 30.30 in 0.8 mi WNW 8.1 mph - 0.00 in Snow Light Snow
12:43 AM 19.4 °F 8.6 °F 15.8 °F 86% 30.30 in 1.0 mi WNW 9.2 mph - 0.00 in Snow Light Snow
12:52 AM 19.9 °F 10.1 °F 14.0 °F 78% 30.35 in 1.0 mi WNW 8.1 mph - 0.00 in Snow Light Snow
1:04 AM 19.4 °F 7.9 °F 12.2 °F 74% 30.32 in 2.0 mi West 10.4 mph 19.6 mph 0.00 in Snow Light Snow
1:09 AM 19.4 °F 10.4 °F 12.2 °F 74% 30.33 in 1.8 mi Variable 6.9 mph 17.3 mph 0.00 in Snow Light Snow
1:29 AM 19.4 °F 7.9 °F 10.4 °F 68% 30.34 in 1.8 mi WNW 10.4 mph 25.3 mph 0.00 in Snow Light Snow
1:42 AM 19.4 °F 7.2 °F 10.4 °F 68% 30.35 in 2.0 mi WNW 11.5 mph 21.9 mph 0.00 in Snow Light Snow
1:47 AM 19.4 °F 7.2 °F 10.4 °F 68% 30.36 in 3.0 mi West 11.5 mph 21.9 mph 0.00 in Snow Light Snow
1:52 AM 18.0 °F 5.4 °F 10.0 °F 71% 30.41 in 4.0 mi WNW 11.5 mph 21.9 mph 0.00 in Snow Light Snow
2:07 AM 17.6 °F 6.4 °F 10.4 °F 73% 30.38 in 4.0 mi WNW 9.2 mph 20.7 mph 0.00 in Snow Light Snow
2:52 AM 17.1 °F 7.6 °F 9.0 °F 71% 30.46 in 6.0 mi WNW 6.9 mph 23.0 mph 0.00 in Snow Light Snow
3:52 AM 16.0 °F 6.3 °F 8.1 °F 71% 30.51 in 7.0 mi Variable 6.9 mph - 0.00 in Snow Light Snow
4:52 AM 14.0 °F - 6.1 °F 71% 30.54 in 10.0 mi Calm Calm - 0.00 in   Clear
5:52 AM 12.9 °F - 5.0 °F 71% 30.56 in 10.0 mi Calm Calm - N/A   Partly Cloudy
6:52 AM 6.1 °F - 3.0 °F 87% 30.60 in 10.0 mi Calm Calm - N/A   Clear
7:52 AM 12.0 °F - 5.0 °F 73% 30.63 in 10.0 mi Calm Calm - N/A   Clear
8:52 AM 14.0 °F 5.1 °F 1.9 °F 59% 30.63 in 10.0 mi WNW 5.8 mph - N/A   Clear
9:52 AM 16.0 °F 7.4 °F 1.0 °F 52% 30.64 in 10.0 mi West 5.8 mph - N/A   Clear
10:52 AM 18.0 °F 12.7 °F 1.0 °F 48% 30.66 in 10.0 mi Variable 3.5 mph - N/A   Clear
11:52 AM 21.0 °F 12.4 °F -0.0 °F 40% 30.63 in 10.0 mi Variable 6.9 mph - N/A   Clear
12:52 PM 23.0 °F 13.9 °F -0.0 °F 37% 30.60 in 10.0 mi WNW 8.1 mph - N/A   Clear
2:52 PM 26.1 °F 19.4 °F 1.9 °F 35% 30.60 in 10.0 mi NW 5.8 mph - N/A   Clear
3:52 PM 25.0 °F 19.3 °F 1.9 °F 37% 30.60 in 10.0 mi Variable 4.6 mph - N/A   Clear
4:52 PM 21.9 °F - 5.0 °F 48% 30.61 in 10.0 mi Calm Calm - N/A   Clear
5:52 PM 17.1 °F - 6.1 °F 62% 30.61 in 10.0 mi Calm Calm - N/A   Clear
6:52 PM 15.1 °F - 7.0 °F 70% 30.61 in 10.0 mi Calm Calm - N/A   Clear
7:52 PM 10.0 °F - 6.1 °F 84% 30.61 in 10.0 mi Calm Calm - N/A   Clear
8:52 PM 10.9 °F - 7.0 °F 84% 30.58 in 10.0 mi Calm Calm - N/A   Clear
9:52 PM 9.0 °F - 5.0 °F 84% 30.56 in 10.0 mi Calm Calm - N/A   Clear
10:52 PM 10.0 °F - 6.1 °F 84% 30.54 in 10.0 mi Calm Calm - N/A   Clear
11:52 PM 10.0 °F - 6.1 °F 84% 30.50 in 10.0 mi Calm Calm - N/A   Clear